Time,TemperatureF,DewpointF,PressureIn,WindDirection,WindDirectionDegrees,WindSpeedMPH,WindSpeedGustMPH,Humidity,HourlyPrecipIn,Conditions,Clouds,dailyrainin,SoftwareType,DateUTC
2013-02-14 00:00:00,72.5,69.7,29.98,SSW,193,3.0,5.0,91,0.00,,,0.00,Wunderground v.1.15,2013-02-14 05:00:00,
2013-02-14 00:10:00,72.5,70.0,29.98,WSW,246,4.0,7.0,92,0.00,,,0.00,Wunderground v.1.15,2013-02-14 05:10:00,
2013-02-14 00:20:00,72.5,70.0,29.98,SW,216,4.0,4.0,92,0.00,,,0.00,Wunderground v.1.15,2013-02-14 05:20:00,
2013-02-14 00:30:00,72.4,69.9,29.98,South,177,3.0,5.0,92,0.00,,,0.00,Wunderground v.1.15,2013-02-14 05:30:00,
2013-02-14 00:40:00,72.3,69.8,29.97,West,273,3.0,3.0,92,0.00,,,0.00,Wunderground v.1.15,2013-02-14 05:40:00,
2013-02-14 00:50:00,72.3,70.2,29.97,SSW,200,3.0,4.0,93,0.00,,,0.00,Wunderground v.1.15,2013-02-14 05:50:00,
2013-02-14 01:00:00,72.2,70.1,29.97,SW,231,3.0,5.0,93,0.00,,,0.00,Wunderground v.1.15,2013-02-14 06:00:00,
2013-02-14 01:10:00,72.1,70.0,29.96,SE,146,3.0,3.0,93,0.00,,,0.00,Wunderground v.1.15,2013-02-14 06:10:00,
2013-02-14 01:20:00,72.0,69.9,29.96,SW,236,2.0,2.0,93,0.00,,,0.00,Wunderground v.1.15,2013-02-14 06:20:00,
2013-02-14 01:30:00,71.9,69.8,29.96,SW,229,2.0,2.0,93,0.00,,,0.00,Wunderground v.1.15,2013-02-14 06:30:00,
2013-02-14 01:40:00,71.9,69.8,29.96,SSE,153,3.0,3.0,93,0.00,,,0.00,Wunderground v.1.15,2013-02-14 06:40:00,
2013-02-14 01:50:00,71.8,69.7,29.96,SSW,205,3.0,3.0,93,0.00,,,0.00,Wunderground v.1.15,2013-02-14 06:50:00,
2013-02-14 02:00:00,71.6,69.5,29.95,SSE,167,2.0,2.0,93,0.00,,,0.00,Wunderground v.1.15,2013-02-14 07:00:00,
2013-02-14 02:10:00,71.5,69.4,29.95,SW,233,1.0,1.0,93,0.00,,,0.00,Wunderground v.1.15,2013-02-14 07:10:00,
2013-02-14 02:20:00,71.4,69.3,29.95,SW,224,1.0,1.0,93,0.00,,,0.00,Wunderground v.1.15,2013-02-14 07:20:00,
2013-02-14 02:30:00,71.4,69.3,29.95,SW,224,1.0,3.0,93,0.00,,,0.00,Wunderground v.1.15,2013-02-14 07:30:00,
2013-02-14 02:40:00,71.4,69.3,29.95,SSW,211,2.0,3.0,93,0.00,,,0.00,Wunderground v.1.15,2013-02-14 07:40:00,
2013-02-14 02:50:00,71.5,69.4,29.94,SSW,193,2.0,2.0,93,0.00,,,0.00,Wunderground v.1.15,2013-02-14 07:50:00,
2013-02-14 03:00:00,71.8,69.3,29.94,SW,225,3.0,3.0,92,0.00,,,0.00,Wunderground v.1.15,2013-02-14 08:00:00,
2013-02-14 03:10:00,71.9,69.4,29.95,SSW,207,2.0,3.0,92,0.00,,,0.00,Wunderground v.1.15,2013-02-14 08:10:00,
2013-02-14 03:20:00,72.0,69.2,29.94,SW,214,2.0,3.0,91,0.00,,,0.00,Wunderground v.1.15,2013-02-14 08:20:00,
2013-02-14 03:30:00,72.1,69.3,29.94,SW,224,1.0,1.0,91,0.00,,,0.00,Wunderground v.1.15,2013-02-14 08:30:00,
2013-02-14 03:40:00,72.1,69.3,29.94,SW,222,0.0,0.0,91,0.00,,,0.00,Wunderground v.1.15,2013-02-14 08:40:00,
2013-02-14 03:50:00,72.1,69.3,29.94,SW,221,1.0,1.0,91,0.00,,,0.00,Wunderground v.1.15,2013-02-14 08:50:00,
2013-02-14 04:00:00,72.0,69.2,29.94,South,179,1.0,2.0,91,0.00,,,0.00,Wunderground v.1.15,2013-02-14 09:00:00,
2013-02-14 04:10:00,71.9,69.4,29.94,WSW,255,2.0,2.0,92,0.00,,,0.00,Wunderground v.1.15,2013-02-14 09:10:00,
2013-02-14 04:20:00,71.8,69.3,29.94,WSW,249,1.0,1.0,92,0.00,,,0.00,Wunderground v.1.15,2013-02-14 09:20:00,
2013-02-14 04:30:00,71.6,69.2,29.94,West,276,1.0,2.0,92,0.00,,,0.00,Wunderground v.1.15,2013-02-14 09:30:00,
2013-02-14 04:40:00,71.5,69.1,29.95,NW,323,3.0,3.0,92,0.00,,,0.00,Wunderground v.1.15,2013-02-14 09:40:00,
2013-02-14 04:50:00,71.4,69.0,29.94,NW,319,1.0,2.0,92,0.00,,,0.00,Wunderground v.1.15,2013-02-14 09:50:00,
2013-02-14 05:00:00,71.4,69.0,29.95,NNW,338,2.0,2.0,92,0.00,,,0.00,Wunderground v.1.15,2013-02-14 10:00:00,
2013-02-14 05:10:00,71.2,68.8,29.95,NNW,328,3.0,3.0,92,0.00,,,0.00,Wunderground v.1.15,2013-02-14 10:10:00,
2013-02-14 05:20:00,71.1,69.0,29.95,NW,314,2.0,2.0,93,0.00,,,0.00,Wunderground v.1.15,2013-02-14 10:20:00,
2013-02-14 05:30:00,70.9,68.8,29.95,WNW,294,1.0,1.0,93,0.00,,,0.00,Wunderground v.1.15,2013-02-14 10:30:00,
2013-02-14 05:40:00,70.7,68.6,29.95,North,5,1.0,1.0,93,0.00,,,0.00,Wunderground v.1.15,2013-02-14 10:40:00,
2013-02-14 05:50:00,70.4,68.6,29.95,NNW,342,1.0,1.0,94,0.00,,,0.00,Wunderground v.1.15,2013-02-14 10:50:00,
2013-02-14 06:00:00,70.2,68.4,29.96,NW,321,0.0,0.0,94,0.00,,,0.00,Wunderground v.1.15,2013-02-14 11:00:00,
2013-02-14 06:10:00,70.2,68.4,29.96,NW,309,1.0,1.0,94,0.00,,,0.00,Wunderground v.1.15,2013-02-14 11:10:00,
2013-02-14 06:20:00,70.1,68.3,29.97,NW,316,1.0,1.0,94,0.00,,,0.00,Wunderground v.1.15,2013-02-14 11:20:00,
2013-02-14 06:30:00,70.0,68.5,29.97,North,6,0.0,0.0,95,0.00,,,0.00,Wunderground v.1.15,2013-02-14 11:30:00,
2013-02-14 06:40:00,70.1,68.6,29.97,ENE,63,2.0,2.0,95,0.00,,,0.00,Wunderground v.1.15,2013-02-14 11:40:00,
2013-02-14 06:50:00,69.9,68.4,29.97,NNE,13,3.0,3.0,95,0.00,,,0.00,Wunderground v.1.15,2013-02-14 11:50:00,
2013-02-14 07:00:00,69.9,68.4,29.97,ENE,58,2.0,2.0,95,0.00,,,0.00,Wunderground v.1.15,2013-02-14 12:00:00,
2013-02-14 07:10:00,69.8,68.3,29.97,North,352,1.0,2.0,95,0.00,,,0.00,Wunderground v.1.15,2013-02-14 12:10:00,
2013-02-14 07:20:00,69.6,68.1,29.98,NNE,19,2.0,2.0,95,0.00,,,0.00,Wunderground v.1.15,2013-02-14 12:20:00,
2013-02-14 07:30:00,69.5,68.3,29.98,NNW,340,2.0,2.0,96,0.00,,,0.00,Wunderground v.1.15,2013-02-14 12:30:00,
2013-02-14 07:40:00,69.5,68.0,29.98,North,350,2.0,2.0,95,0.00,,,0.00,Wunderground v.1.15,2013-02-14 12:40:00,
2013-02-14 07:50:00,69.4,67.9,29.98,North,359,0.0,1.0,95,0.00,,,0.00,Wunderground v.1.15,2013-02-14 12:50:00,
2013-02-14 08:00:00,69.5,68.0,29.99,North,8,1.0,2.0,95,0.00,,,0.00,Wunderground v.1.15,2013-02-14 13:00:00,
2013-02-14 08:10:00,69.7,68.2,29.98,North,1,3.0,3.0,95,0.00,,,0.00,Wunderground v.1.15,2013-02-14 13:10:00,
2013-02-14 08:20:00,70.3,68.5,29.98,North,352,3.0,3.0,94,0.00,,,0.00,Wunderground v.1.15,2013-02-14 13:20:00,
2013-02-14 08:30:00,70.9,68.5,29.99,NW,326,3.0,3.0,92,0.00,,,0.00,Wunderground v.1.15,2013-02-14 13:30:00,
2013-02-14 08:40:00,71.2,68.4,30.00,NNE,23,4.0,4.0,91,0.00,,,0.00,Wunderground v.1.15,2013-02-14 13:40:00,
2013-02-14 08:50:00,71.5,68.4,30.00,North,350,4.0,4.0,90,0.00,,,0.00,Wunderground v.1.15,2013-02-14 13:50:00,
2013-02-14 09:00:00,71.8,68.4,30.00,NNE,27,4.0,4.0,89,0.00,,,0.00,Wunderground v.1.15,2013-02-14 14:00:00,
2013-02-14 09:10:00,71.9,68.5,30.00,North,356,4.0,4.0,89,0.00,,,0.00,Wunderground v.1.15,2013-02-14 14:10:00,
2013-02-14 09:20:00,71.9,68.5,30.01,NNE,19,3.0,4.0,89,0.00,,,0.00,Wunderground v.1.15,2013-02-14 14:20:00,
2013-02-14 09:30:00,72.0,68.6,30.01,North,6,3.0,4.0,89,0.00,,,0.00,Wunderground v.1.15,2013-02-14 14:30:00,
2013-02-14 09:40:00,71.8,68.4,30.01,NE,44,4.0,4.0,89,0.00,,,0.00,Wunderground v.1.15,2013-02-14 14:40:00,
2013-02-14 09:50:00,71.6,68.5,30.01,NW,319,3.0,4.0,90,0.00,,,0.00,Wunderground v.1.15,2013-02-14 14:50:00,
2013-02-14 10:00:00,71.4,68.0,30.01,North,360,2.0,4.0,89,0.00,,,0.00,Wunderground v.1.15,2013-02-14 15:00:00,
2013-02-14 10:10:00,71.6,68.2,30.02,NW,304,3.0,4.0,89,0.00,,,0.00,Wunderground v.1.15,2013-02-14 15:10:00,
2013-02-14 10:20:00,71.3,67.6,30.02,NW,309,3.0,4.0,88,0.00,,,0.00,Wunderground v.1.15,2013-02-14 15:20:00,
2013-02-14 10:30:00,71.4,68.0,30.02,NE,34,3.0,4.0,89,0.00,,,0.00,Wunderground v.1.15,2013-02-14 15:30:00,
2013-02-14 10:40:00,71.3,67.6,30.01,North,1,3.0,3.0,88,0.00,,,0.00,Wunderground v.1.15,2013-02-14 15:40:00,
2013-02-14 10:50:00,71.3,67.6,30.01,NE,51,3.0,4.0,88,0.00,,,0.00,Wunderground v.1.15,2013-02-14 15:50:00,
2013-02-14 11:00:00,71.5,67.8,30.01,NNE,15,3.0,6.0,88,0.00,,,0.00,Wunderground v.1.15,2013-02-14 16:00:00,
2013-02-14 11:10:00,71.8,68.1,30.01,NE,53,4.0,6.0,88,0.00,,,0.00,Wunderground v.1.15,2013-02-14 16:10:00,
2013-02-14 11:20:00,72.9,68.8,30.00,ENE,58,4.0,6.0,87,0.00,,,0.00,Wunderground v.1.15,2013-02-14 16:20:00,
2013-02-14 11:30:00,73.4,69.0,30.00,ENE,70,5.0,6.0,86,0.00,,,0.00,Wunderground v.1.15,2013-02-14 16:30:00,
2013-02-14 11:40:00,74.0,69.5,30.00,NE,39,4.0,5.0,86,0.00,,,0.00,Wunderground v.1.15,2013-02-14 16:40:00,
2013-02-14 11:50:00,73.8,69.3,30.00,ENE,68,5.0,5.0,86,0.00,,,0.00,Wunderground v.1.15,2013-02-14 16:50:00,
2013-02-14 12:00:00,75.0,70.5,29.99,ENE,71,4.0,4.0,86,0.00,,,0.00,Wunderground v.1.15,2013-02-14 17:00:00,
2013-02-14 12:10:00,75.8,71.0,29.98,ENE,71,4.0,6.0,85,0.00,,,0.00,Wunderground v.1.15,2013-02-14 17:10:00,
2013-02-14 12:20:00,76.3,70.8,29.98,NNE,27,4.0,4.0,83,0.00,,,0.00,Wunderground v.1.15,2013-02-14 17:20:00,
2013-02-14 12:30:00,75.8,71.0,29.97,East,94,5.0,5.0,85,0.00,,,0.00,Wunderground v.1.15,2013-02-14 17:30:00,
2013-02-14 12:40:00,75.9,71.1,29.97,ENE,67,4.0,6.0,85,0.00,,,0.00,Wunderground v.1.15,2013-02-14 17:40:00,
2013-02-14 12:50:00,76.6,71.0,29.96,NNE,15,5.0,5.0,83,0.00,,,0.00,Wunderground v.1.15,2013-02-14 17:50:00,
2013-02-14 13:00:00,76.4,70.9,29.95,ENE,68,5.0,6.0,83,0.00,,,0.00,Wunderground v.1.15,2013-02-14 18:00:00,
2013-02-14 13:10:00,75.4,70.6,29.95,NE,35,6.0,8.0,85,0.00,,,0.00,Wunderground v.1.15,2013-02-14 18:10:00,
2013-02-14 13:20:00,74.4,70.3,29.94,East,82,6.0,6.0,87,0.00,,,0.00,Wunderground v.1.15,2013-02-14 18:20:00,
2013-02-14 13:30:00,74.3,70.5,29.94,NE,37,5.0,9.0,88,0.00,,,0.00,Wunderground v.1.15,2013-02-14 18:30:00,
2013-02-14 13:40:00,74.2,70.4,29.93,ENE,68,7.0,7.0,88,0.00,,,0.00,Wunderground v.1.15,2013-02-14 18:40:00,
2013-02-14 13:50:00,75.1,71.3,29.92,ENE,61,5.0,7.0,88,0.00,,,0.00,Wunderground v.1.15,2013-02-14 18:50:00,
2013-02-14 14:00:00,75.9,71.4,29.92,East,100,7.0,7.0,86,0.00,,,0.00,Wunderground v.1.15,2013-02-14 19:00:00,
2013-02-14 14:10:00,76.5,71.7,29.91,SE,127,6.0,6.0,85,0.00,,,0.00,Wunderground v.1.15,2013-02-14 19:10:00,
2013-02-14 14:20:00,76.8,71.9,29.91,ENE,59,6.0,7.0,85,0.00,,,0.00,Wunderground v.1.15,2013-02-14 19:20:00,
2013-02-14 14:30:00,77.2,72.3,29.91,East,95,6.0,11.0,85,0.00,,,0.00,Wunderground v.1.15,2013-02-14 19:30:00,
2013-02-14 14:40:00,76.6,71.7,29.91,ENE,69,7.0,7.0,85,0.00,,,0.00,Wunderground v.1.15,2013-02-14 19:40:00,
2013-02-14 14:50:00,76.9,72.7,29.91,ENE,62,7.0,11.0,87,0.00,,,0.00,Wunderground v.1.15,2013-02-14 19:50:00,
2013-02-14 15:00:00,76.8,71.9,29.90,ENE,78,7.0,7.0,85,0.00,,,0.00,Wunderground v.1.15,2013-02-14 20:00:00,
2013-02-14 15:10:00,76.7,72.2,29.89,East,83,6.0,6.0,86,0.00,,,0.00,Wunderground v.1.15,2013-02-14 20:10:00,
2013-02-14 15:20:00,75.9,70.4,29.89,SSE,164,7.0,7.0,83,0.00,,,0.00,Wunderground v.1.15,2013-02-14 20:20:00,
2013-02-14 15:30:00,75.6,70.4,29.88,SE,124,5.0,5.0,84,0.00,,,0.00,Wunderground v.1.15,2013-02-14 20:30:00,
2013-02-14 15:40:00,75.0,70.5,29.87,East,95,3.0,3.0,86,0.00,,,0.01,Wunderground v.1.15,2013-02-14 20:40:00,
2013-02-14 15:50:00,73.6,69.8,29.88,SW,233,2.0,2.0,88,0.57,,,0.06,Wunderground v.1.15,2013-02-14 20:50:00,
2013-02-14 16:00:00,72.7,69.3,29.87,NNW,346,3.0,3.0,89,0.07,,,0.07,Wunderground v.1.15,2013-02-14 21:00:00,
2013-02-14 16:10:00,72.8,70.3,29.88,NW,319,4.0,4.0,92,0.04,,,0.08,Wunderground v.1.15,2013-02-14 21:10:00,
2013-02-14 16:20:00,72.6,70.1,29.88,NNE,32,2.0,2.0,92,0.04,,,0.08,Wunderground v.1.15,2013-02-14 21:20:00,
2013-02-14 16:30:00,73.1,71.3,29.89,NW,309,5.0,7.0,94,0.00,,,0.08,Wunderground v.1.15,2013-02-14 21:30:00,
2013-02-14 16:40:00,73.0,70.9,29.90,NW,310,7.0,7.0,93,0.00,,,0.08,Wunderground v.1.15,2013-02-14 21:40:00,
2013-02-14 16:50:00,72.8,70.7,29.89,NW,307,7.0,9.0,93,0.00,,,0.08,Wunderground v.1.15,2013-02-14 21:50:00,
2013-02-14 17:00:00,72.5,70.4,29.90,NW,304,7.0,8.0,93,0.00,,,0.08,Wunderground v.1.15,2013-02-14 22:00:00,
2013-02-14 17:10:00,72.4,70.6,29.90,NW,304,5.0,5.0,94,0.00,,,0.08,Wunderground v.1.15,2013-02-14 22:10:00,
2013-02-14 17:20:00,72.4,70.6,29.90,NNW,328,3.0,4.0,94,0.00,,,0.08,Wunderground v.1.15,2013-02-14 22:20:00,
2013-02-14 17:30:00,72.4,70.6,29.90,WNW,290,2.0,2.0,94,0.00,,,0.08,Wunderground v.1.15,2013-02-14 22:30:00,
2013-02-14 17:40:00,72.5,70.7,29.91,West,260,2.0,2.0,94,0.00,,,0.08,Wunderground v.1.15,2013-02-14 22:40:00,
2013-02-14 17:50:00,72.7,70.9,29.92,North,360,2.0,4.0,94,0.00,,,0.08,Wunderground v.1.15,2013-02-14 22:50:00,
2013-02-14 18:00:00,72.2,70.1,29.92,NW,323,4.0,9.0,93,0.00,,,0.08,Wunderground v.1.15,2013-02-14 23:00:00,
2013-02-14 18:10:00,71.7,69.9,29.93,NNW,333,5.0,5.0,94,0.15,,,0.13,Wunderground v.1.15,2013-02-14 23:10:00,
2013-02-14 18:20:00,71.2,69.4,29.95,WNW,298,7.0,7.0,94,0.33,,,0.36,Wunderground v.1.15,2013-02-14 23:20:00,
2013-02-14 18:30:00,69.9,67.8,29.96,WNW,285,10.0,18.0,93,0.06,,,0.37,Wunderground v.1.15,2013-02-14 23:30:00,
2013-02-14 18:40:00,68.3,66.5,29.96,NW,323,12.0,12.0,94,0.08,,,0.39,Wunderground v.1.15,2013-02-14 23:40:00,
2013-02-14 18:50:00,66.2,64.1,29.95,NNW,338,13.0,14.0,93,0.05,,,0.39,Wunderground v.1.15,2013-02-14 23:50:00,
2013-02-14 19:00:00,64.8,63.0,29.96,NW,319,9.0,9.0,94,0.00,,,0.39,Wunderground v.1.15,2013-02-15 00:00:00,
2013-02-14 19:10:00,64.5,63.0,29.96,NNW,340,7.0,7.0,95,0.00,,,0.39,Wunderground v.1.15,2013-02-15 00:10:00,
2013-02-14 19:20:00,64.4,62.9,29.97,NNE,13,7.0,12.0,95,0.00,,,0.39,Wunderground v.1.15,2013-02-15 00:20:00,
2013-02-14 19:30:00,64.2,62.7,29.97,NNE,21,9.0,9.0,95,0.21,,,0.44,Wunderground v.1.15,2013-02-15 00:30:00,
2013-02-14 19:40:00,63.9,62.4,29.97,NNE,16,9.0,10.0,95,0.05,,,0.44,Wunderground v.1.15,2013-02-15 00:40:00,
2013-02-14 19:50:00,63.6,62.1,29.97,NNE,23,8.0,8.0,95,0.04,,,0.45,Wunderground v.1.15,2013-02-15 00:50:00,
2013-02-14 20:00:00,63.6,62.1,29.97,NNE,20,8.0,8.0,95,0.00,,,0.45,Wunderground v.1.15,2013-02-15 01:00:00,
2013-02-14 20:10:00,63.5,62.0,29.98,NNE,12,9.0,9.0,95,0.00,,,0.45,Wunderground v.1.15,2013-02-15 01:10:00,
2013-02-14 20:20:00,63.6,62.1,29.98,North,5,9.0,16.0,95,0.00,,,0.45,Wunderground v.1.15,2013-02-15 01:20:00,
2013-02-14 20:30:00,63.5,62.0,29.98,North,352,11.0,11.0,95,0.00,,,0.45,Wunderground v.1.15,2013-02-15 01:30:00,
2013-02-14 20:40:00,63.5,62.0,29.99,North,4,8.0,9.0,95,0.00,,,0.45,Wunderground v.1.15,2013-02-15 01:40:00,
2013-02-14 20:50:00,63.5,62.0,30.00,NNE,18,8.0,12.0,95,0.00,,,0.45,Wunderground v.1.15,2013-02-15 01:50:00,
2013-02-14 21:00:00,63.3,61.8,29.99,NNE,25,8.0,9.0,95,0.00,,,0.45,Wunderground v.1.15,2013-02-15 02:00:00,
2013-02-14 21:10:00,63.3,61.8,30.00,NE,37,9.0,14.0,95,0.00,,,0.45,Wunderground v.1.15,2013-02-15 02:10:00,
2013-02-14 21:20:00,63.3,61.8,30.00,WNW,302,8.0,8.0,95,0.21,,,0.47,Wunderground v.1.15,2013-02-15 02:20:00,
2013-02-14 21:30:00,63.5,62.3,30.01,NE,46,6.0,10.0,96,0.09,,,0.48,Wunderground v.1.15,2013-02-15 02:30:00,
2013-02-14 21:40:00,63.5,62.3,30.02,West,281,6.0,7.0,96,0.09,,,0.50,Wunderground v.1.15,2013-02-15 02:40:00,
2013-02-14 21:50:00,63.4,62.2,30.02,NNE,22,5.0,5.0,96,0.31,,,0.58,Wunderground v.1.15,2013-02-15 02:50:00,
2013-02-14 22:00:00,63.1,61.9,30.02,NW,309,6.0,8.0,96,0.14,,,0.61,Wunderground v.1.15,2013-02-15 03:00:00,
2013-02-14 22:10:00,63.0,61.8,30.02,North,356,6.0,9.0,96,0.06,,,0.61,Wunderground v.1.15,2013-02-15 03:10:00,
2013-02-14 22:20:00,62.9,61.7,30.01,NNW,334,7.0,7.0,96,0.00,,,0.61,Wunderground v.1.15,2013-02-15 03:20:00,
2013-02-14 22:30:00,62.7,61.5,30.01,NNW,333,7.0,7.0,96,0.00,,,0.61,Wunderground v.1.15,2013-02-15 03:30:00,
2013-02-14 22:40:00,62.7,61.5,30.02,NE,39,7.0,9.0,96,0.00,,,0.61,Wunderground v.1.15,2013-02-15 03:40:00,
2013-02-14 22:50:00,62.8,61.6,30.02,NNW,338,6.0,6.0,96,0.00,,,0.61,Wunderground v.1.15,2013-02-15 03:50:00,
2013-02-14 23:00:00,62.9,61.7,30.02,North,11,6.0,6.0,96,0.00,,,0.61,Wunderground v.1.15,2013-02-15 04:00:00,
2013-02-14 23:10:00,63.0,61.8,30.02,NNW,330,5.0,5.0,96,0.00,,,0.61,Wunderground v.1.15,2013-02-15 04:10:00,
2013-02-14 23:20:00,63.0,61.8,30.02,North,3,6.0,6.0,96,0.00,,,0.61,Wunderground v.1.15,2013-02-15 04:20:00,
2013-02-14 23:30:00,63.1,61.9,30.01,NNE,32,5.0,9.0,96,0.00,,,0.61,Wunderground v.1.15,2013-02-15 04:30:00,
2013-02-14 23:40:00,63.1,61.9,30.02,NE,41,5.0,5.0,96,0.00,,,0.61,Wunderground v.1.15,2013-02-15 04:40:00,
2013-02-14 23:50:00,63.2,62.0,30.02,NW,322,5.0,5.0,96,0.00,,,0.61,Wunderground v.1.15,2013-02-15 04:50:00,